Location: Recife
(8.0585°S, 34.8848°W)
Time: 12:57:04
(UTC-03:00)

Injun/Solrad 3 - Pass Details

Date: 17 April 2026
Orbit: 868 x 988 km, 66.8° (Epoch: 12 May)

Event Time Altitude Azimuth Distance (km) Brightness Sun altitude
Rises 08:20:54 0° 329° (NNW) 3,679 11.0 41.9°
Reaches altitude 10° 08:23:33 10° 324° (NW) 2,732 10.3 42.5°
Maximum altitude 08:29:44 51° 250° (WSW) 1,213 8.7 43.9°
Drops below altitude 10° 08:35:51 10° 175° (S) 2,700 10.3 45.3°
Sets 08:38:28 0° 169° (S) 3,633 10.9 45.9°
